Regional Weather Roundup
Issued by NWS Albany, NY

Home | Current Version | Previous Version | Text Only | Print | Product List | Glossary On
Versions: 1 2 3 4 5 6 7 8 9 10 11 12 13 14 15 16 17 18 19 20 21 22 23 24 25 26 27
000
ASUS41 KALY 250510
RWRALY

NEW YORK STATE HOURLY WEATHER ROUNDUP
NATIONAL WEATHER SERVICE ALBANY NY
100 AM EDT SUN SEP 25 2016

NOTE: "FAIR" INDICATES FEW OR NO CLOUDS BELOW 12,000 FEET WITH NO
SIGNIFICANT WEATHER AND/OR NO OBSTRUCTIONS TO VISIBILITY.

NYZ032-033-038>043-046>054-057>066-NYZ062>081-082-084-250600-
EAST


CITY           SKY/WX    TMP DP  RH WIND       PRES   REMARKS
ALBANY         CLEAR     48  39  71 CALM      30.17S
GLENS FALLS    CLEAR     42  38  85 CALM      30.16S
POUGHKEEPSIE   CLEAR     42  40  92 CALM      30.16S
NEWBURGH       CLEAR     48  45  87 VRB6      30.18S
MONTGOMERY     CLEAR     45  42  89 CALM      30.17S
WHITE PLAINS   CLEAR     54  40  59 N10       30.14S
ISLIP          CLEAR     57  43  59 N6        30.12S
NEW YORK CITY  CLEAR     63  46  54 N9        30.14S
CENTRAL PARK   CLEAR     60  43  53 VRB6      30.17F
$$

NYZ005>009-017-018-044>046-055-056-250600-
CENTRAL


CITY           SKY/WX    TMP DP  RH WIND       PRES   REMARKS
FULTON         CLEAR     49  40  71 NE6       30.22S
SYRACUSE       PTCLDY    49  43  80 NW5       30.21S
ROME           MOCLDY    44  42  93 CALM      30.22S
ELMIRA         CLEAR     42  38  85 SW5       30.22S
BINGHAMTON     CLEAR     47  37  68 N8        30.20S
MONTICELLO     CLEAR     43  37  81 W5        30.19S
$$

NYZ026>034-041>043-087-250600-
NORTH


CITY           SKY/WX    TMP DP  RH WIND       PRES   REMARKS
WATERTOWN      CLEAR     37  35  92 SE5       30.23S WCI  33
FORT DRUM      NOT AVBL
OGDENSBURG     FAIR      46  38  75 N3        30.23S
MASSENA        PTCLDY    47  37  68 N7        30.23R
SARANAC LAKE   CLEAR     30  27  88 CALM      30.17F
PLATTSBURGH    CLEAR     48  35  60 NW9       30.17S
$$

NYZ001>004-010>016-019>021-085-250600-
WEST


CITY           SKY/WX    TMP DP  RH WIND       PRES   REMARKS
NIAGARA FALLS  PTCLDY    47  40  76 CALM      30.24R
BUFFALO        CLEAR     47  41  80 S3        30.24S
DUNKIRK        CLEAR     43  39  86 CALM      30.24S
JAMESTOWN      CLEAR     46  37  71 NE6       30.23F
WELLSVILLE     CLEAR     42  40  92 CALM      30.25S
ROCHESTER      PTCLDY    46  43  89 W6        30.23S
PENN YAN       CLEAR     50  45  83 SW6       30.23S
$$

             KEY
       WCI = WIND CHILL INDEX
       VSB = VISIBILITY
       HX  = HEAT INDEX
$$




USA.gov is the U.S. government's official web portal to all federal, state and local government web resources and services.